Regional Weather Roundup
Issued by NWS

Home | Current Version | Previous Version | Text Only | Print | Product List | Glossary On
Versions: 1 2 3 4 5 6 7 8 9 10 11 12 13 14 15 16 17 18 19 20 21 22 23 24 25 26 27 28 29 30 31 32 33 34 35 36 37 38 39 40 41 42 43 44 45 46 47 48 49 50
000
ASUS44 KOUN 220910
RWROK

WEATHER ROUNDUP FOR OKLAHOMA
NATIONAL WEATHER SERVICE NORMAN OK
400 AM CDT SAT JUL 22 2017

NOTE: "FAIR" INDICATES FEW OR NO CLOUDS BELOW 12,000 FEET WITH NO
      SIGNIFICANT WEATHER AND/OR OBSTRUCTIONS TO VISIBILITY.

OKZ001>007-009>012-014-015-017-221000-
NORTHWEST OKLAHOMA AND THE PANHANDLE

CITY           SKY/WX    TMP DP  RH WIND       PRES   REMARKS
GAGE           CLEAR     81  62  52 S16       29.93F
GUYMON         CLEAR     73  56  54 NW15G23   29.99R
ENID/WOODRING  CLEAR     82  68  61 S10       29.89S
$$

OKZ016-021>023-033>039-044-045-221000-
SOUTHWEST OKLAHOMA

CITY           SKY/WX    TMP DP  RH WIND       PRES   REMARKS
LAWTON/REGL    CLEAR     77  69  76 CALM      29.93S
FREDERICK      CLEAR     81  65  58 S7        29.89S
CLINTON        CLEAR     81  63  54 S14       29.95F
HOBART         CLEAR     82  65  56 S13       29.93F
ALTUS AFB      PTCLDY    76  64  65 E7        29.92S
$$

OKZ018>020-024>031-221000-
CENTRAL OKLAHOMA

CITY           SKY/WX    TMP DP  RH WIND       PRES   REMARKS
OKLAHOMA CITY  CLEAR     78  68  71 S8        29.93F
OKC/WILEY POST CLEAR     82  69  64 S16       29.92F
OKC/TINKER AFB CLEAR     79  68  69 S12       29.92F
STILLWATER     CLEAR     82  67  60 S10       29.89F
GUTHRIE        CLEAR     84  68  58 S10       29.90F
$$

OKZ008-013-054>072-221000-
NORTHEAST OKLAHOMA

CITY           SKY/WX    TMP DP  RH WIND       PRES   REMARKS
TULSA          PTCLDY    84  70  62 S13       29.88F
TULSA/JONES    CLEAR     82  69  64 S8        29.89F
PONCA CITY     CLEAR     83  68  60 S6        29.88F
BARTLESVILLE   CLEAR     81  70  69 S6        29.89F
MUSKOGEE       CLEAR     75  72  90 S6        29.92F
$$

OKZ032-040>043-046>053-073>077-221000-
SOUTH CENTRAL/SOUTHEAST OKLAHOMA

CITY           SKY/WX    TMP DP  RH WIND       PRES   REMARKS
ARDMORE/DWNTWN CLEAR     79  68  69 SW3       29.93S
MCALESTER      CLEAR     78  71  79 S5        29.94F
$$




USA.gov is the U.S. government's official web portal to all federal, state and local government web resources and services.